Flag for Germany Past Weather in Menden (Sauerland), North Rhine-Westphalia, Germany — Yesterday and Last 2 Weeks

Now
63 °F

Light rain. Fog.


Feels Like: 63 °F
Forecast: 55 / 65 °F
Wind: No wind

Location: Dortmund / Wickede

Current Time: Jun 25, 2016 at 8:57:27 AM

Latest Report: Jun 25, 2016 at 7:50 AM


Visibility: 2 mi

Pressure: 29.98 "Hg

Humidity: 94%

Dew Point: 61 °F

Location of Menden (Sauerland)Location

Past Weather in Menden (Sauerland) — Graph

°F

Menden (Sauerland) Temperature Yesterday

Maximum temperature yesterday: 77 °F (at 1:20 PM)
Minimum temperature yesterday: 64 °F (at 5:20 AM)
Average temperature yesterday: 71 °F

High & Low Weather Summary for the Past Weeks

 TemperatureHumidityPressure
High90 °F (Jun 23, 3:20 PM)94% (Jun 13, 9:20 AM)30.24 "Hg (Jun 13, 9:20 AM)
Low48 °F (Jun 20, 5:20 AM)26% (Jun 10, 2:50 PM)29.47 "Hg (Jun 14, 2:50 PM)
Average63 °F71%29.88 "Hg
* Reported Jun 10 7:20 AM — Jun 25 7:20 AM, Menden (Sauerland), Weather by CustomWeather, © 2016

Note: Actual official high and low records may vary slightly from our data, if they occured in-between our weather recording intervals... More about our weather records

Advertising

Menden (Sauerland) Weather History for the Previous 24 Hours

Scroll right to see more
 ConditionsComfort  
Time TempWeatherWind HumidityBarometerVisibility
7:20 AM
Sat, Jun 25
64 °FFog.5 mph88%29.98 "Hg2 mi
6:50 AM64 °FFog.3 mph88%29.98 "Hg2 mi
6:20 AM63 °FFog.5 mph88%29.98 "Hg2 mi
5:50 AM63 °FFog.3 mph88%29.98 "Hg3 mi
5:20 AM64 °FFog.3 mph83%29.98 "Hg3 mi
9:50 PM
Fri, Jun 24
68 °FPartly sunny.5 mph78%30.07 "HgN/A
9:20 PM70 °FPartly sunny.5 mph73%30.04 "HgN/A
8:50 PM70 °FPartly sunny.7 mph78%30.04 "HgN/A
8:20 PM70 °FPartly sunny.7 mph78%30.04 "HgN/A
7:50 PM70 °FPartly sunny.5 mph78%30.04 "HgN/A
7:20 PM72 °FPartly sunny.8 mph73%30.07 "HgN/A
6:50 PM72 °FPartly sunny.10 mph73%30.04 "HgN/A
6:20 PM72 °FScattered showers. Partly sunny.10 mph78%30.04 "HgN/A
5:50 PM73 °FPartly sunny.10 mph74%30.04 "Hg5 mi
5:20 PM73 °FScattered clouds.9 mph74%30.04 "HgN/A
4:50 PM73 °FBroken clouds.8 mph74%30.04 "HgN/A
4:20 PM73 °FScattered clouds.8 mph74%30.04 "HgN/A
3:50 PM75 °FBroken clouds.6 mph69%30.04 "HgN/A
3:20 PM75 °FPartly sunny.8 mph69%30.04 "HgN/A
2:50 PM75 °FPartly sunny.7 mph69%30.04 "HgN/A
2:20 PM75 °FPartly sunny.9 mph69%30.04 "HgN/A
1:50 PM75 °FPartly sunny.9 mph74%30.04 "HgN/A
1:20 PM77 °FPartly sunny.9 mph69%30.04 "HgN/A
12:50 PM73 °FScattered clouds.10 mph74%30.04 "HgN/A
12:20 PM75 °FSunny.9 mph69%30.04 "Hg10 mi
11:50 AM72 °FSunny.6 mph83%30.04 "Hg10 mi
11:20 AM72 °FSunny.3 mph83%30.04 "Hg10 mi
10:50 AM72 °FSunny.2 mph83%30.04 "Hg10 mi
10:20 AM70 °FSunny.3 mph83%30.01 "Hg10 mi
9:50 AM70 °FSunny.3 mph88%30.01 "Hg10 mi
9:20 AM70 °FSunny.3 mph83%30.04 "Hg10 mi
8:50 AM70 °FScattered clouds.8 mph78%30.01 "HgN/A
8:20 AM68 °FScattered clouds.6 mph83%30.04 "HgN/A
Weather by CustomWeather, © 2016

See weather overviewHow to use our weather pages